Regional Weather Roundup
Issued by NWS Little Rock, AR

Home | Current Version | Previous Version | Graphics & Text | Print | Product List | Glossary On
Versions: 1 2 3 4 5 6 7 8 9 10 11 12 13 14 15 16 17 18 19 20 21 22 23 24 25 26 27 28 29 30 31 32
000
ASUS44 KLZK 250505
RWRLZK

WEATHER ROUNDUP FOR ARKANSAS
NATIONAL WEATHER SERVICE LITTLE ROCK AR
1200 AM CDT SUN JUN 25 2017

NOTE: "FAIR" INDICATES FEW OR NO CLOUDS BELOW 12,000 FEET WITH NO
SIGNIFICANT WEATHER AND/OR OBSTRUCTIONS TO VISIBILITY.

ARZ001-003-010-029-250600-
NORTHWEST ARKANSAS

CITY           SKY/WX    TMP DP  RH WIND       PRES   REMARKS
FAYETTEVILLE   CLEAR     62  60  93 CALM      30.26R
FORT SMITH     CLOUDY    73  63  70 NE6       30.21R
HARRISON       PTCLDY    63  53  70 NW3       30.25S
BENTONVILLE    CLOUDY    70  52  52 CALM      30.27R
ROGERS         CLOUDY    68  53  58 CALM      30.27R
SILOAM SPGS    CLOUDY    68  55  64 CALM      30.26R
HIGHFILL       CLOUDY    68  56  65 CALM      30.26R
$$

ARZ004-005-016-250600-
NORTH CENTRAL ARKANSAS

CITY           SKY/WX    TMP DP  RH WIND       PRES   REMARKS
BATESVILLE     PTCLDY    66  59  77 CALM      30.21R
FLIPPIN        CLEAR     63  54  72 N3        30.20S
MTN HOME       CLEAR     63  50  62 CALM      30.22S
$$

ARZ040-041-250600-
WEST CENTRAL ARKANSAS

CITY           SKY/WX    TMP DP  RH WIND       PRES   REMARKS
MENA           MOCLDY    66  66 100 CALM      30.23R
MOUNT IDA      CLOUDY    70  66  87 CALM      30.19R
$$

ARZ009-017-025-026-028-250600-
NORTHEAST ARKANSAS

CITY           SKY/WX    TMP DP  RH WIND       PRES   REMARKS
JONESBORO      PTCLDY    65  61  87 CALM      30.19R
WALNUT RIDGE   CLOUDY    70  59  68 NW6       30.20R
BLYTHEVILLE    CLEAR     68  63  84 CALM      30.18S
$$

ARZ022-023-033-042-044-250600-
CENTRAL ARKANSAS

CITY           SKY/WX    TMP DP  RH WIND       PRES   REMARKS
LITTLE ROCK    CLOUDY    70  61  73 NE5       30.19R
N LITTLE ROCK    N/A     71  58  64 N5        30.19R
JACKSONVILLE   MOCLDY    71  62  74 CALM      30.18S
CONWAY           N/A     70  66  88 CALM      30.18S
SEARCY         CLOUDY    70  61  73 CALM      30.21R
HOT SPRINGS    CLOUDY    74  59  59 NE8       30.19R
RUSSELLVILLE   CLOUDY    69  63  81 CALM      30.20R
CLINTON        FAIR      63  61  94 CALM      30.21S
$$

ARZ036-250600-
EAST ARKANSAS

CITY           SKY/WX    TMP DP  RH WIND       PRES   REMARKS
WEST MEMPHIS   PTCLDY    70  63  78 N5        30.17R
$$

ARZ050-053-066-070-073-250600-
SOUTHWEST ARKANSAS

CITY           SKY/WX    TMP DP  RH WIND       PRES   REMARKS
CAMDEN         MOCLDY    68  64  88 CALM      30.17R
TEXARKANA      CLEAR     70  67  90 NE3       30.18R
EL DORADO      MOCLDY    72  67  84 N6        30.16R
DE QUEEN       CLOUDY    70  69  97 CALM      30.17R
$$

ARZ056-057-069-250600-
SOUTHEAST ARKANSAS

CITY           SKY/WX    TMP DP  RH WIND       PRES   REMARKS
PINE BLUFF     MOCLDY    70  65  84 N3        30.17R
STUTTGART      CLOUDY    72  59  64 N5        30.18S
MONTICELLO     CLOUDY    72  65  78 VRB3      30.16R

$$






USA.gov is the U.S. government's official web portal to all federal, state and local government web resources and services.